This demonstration page uses our WeatherBlox Daily Observations layout. Learn more.

Left ArrowRight Arrow

41.86663, -103.66717

Hourly Observations for May 21, 2021

Temp ( °F °C ) Dew Point ( °F °C ) Humidity (%) Winds ( mph kmh ) Pressure ( in mb ) Visibility ( mi km ) Precip ( " mm )
12:15 am 00:15 Mostly Cloudy 65 18.3 57 13.9 76 76 ESE 20 31 29.59 1002 10 16 0.00 0.00
12:53 am 00:53 Cloudy 65 18.3 57 13.9 76 76 SE 22 35 29.60 1002 10 16 0.00 0.00
1:19 am 01:19 Partly Cloudy 64 17.8 57 13.9 78 78 ESE 18 30 29.58 1002 10 16 0.00 0.00
1:37 am 01:37 Mostly Cloudy 63 17.2 57 13.9 81 81 ESE 16 26 29.60 1002 10 16 0.00 0.00
1:53 am 01:53 Mostly Cloudy 63 17.2 56 13.3 78 78 ESE 16 26 29.60 1002 10 16 0.00 0.00
2:02 am 02:02 Partly Cloudy 62 16.7 56 13.3 80 80 ESE 18 30 29.60 1002 10 16 0.00 0.00
2:53 am 02:53 Clear 62 16.7 57 13.9 84 84 SE 15 24 29.59 1002 10 16 0.00 0.00
3:27 am 03:27 Mostly Cloudy 61 16.1 57 13.9 87 87 E 8 13 29.62 1003 10 16 0.00 0.00
3:53 am 03:53 Partly Cloudy 61 16.1 57 13.9 87 87 ESE 12 19 29.62 1003 10 16 0.00 0.00
4:46 am 04:46 Mostly Cloudy 60 15.6 56 13.3 86 86 ENE 7 11 29.64 1004 10 16 0.00 0.00
4:53 am 04:53 Mostly Cloudy 60 15.6 57 13.9 90 90 E 9 15 29.64 1004 10 16 0.00 0.00
5:53 am 05:53 Cloudy 61 16.1 57 13.9 87 87 ENE 12 19 29.67 1005 10 16 0.00 0.00
6:53 am 06:53 Mostly Cloudy 62 16.7 57 13.9 84 84 ESE 12 19 29.70 1006 10 16 0.00 0.00
7:34 am 07:34 Mostly Sunny 63 17.2 56 13.3 78 78 ESE 12 19 29.71 1006 10 16 0.00 0.00
7:53 am 07:53 Sunny 64 17.8 57 13.9 78 78 ESE 10 17 29.73 1007 10 16 0.00 0.00
8:53 am 08:53 Mostly Cloudy 67 19.4 57 13.9 71 71 SE 6 9 29.74 1007 10 16 0.00 0.00
9:53 am 09:53 Cloudy 67 19.4 56 13.3 68 68 S 6 9 29.75 1007 10 16 0.00 0.00
10:53 am 10:53 Mostly Cloudy 70 21.1 56 13.3 61 61 SSE 8 13 29.76 1008 10 16 0.00 0.00
11:09 am 11:09 Partly Cloudy 71 21.7 56 13.3 59 59 SE 10 17 29.67 1005 10 16 0.00 0.00
11:19 am 11:19 Mostly Cloudy 72 22.2 57 13.9 59 59 SSE 10 17 29.65 1004 10 16 0.00 0.00
11:26 am 11:26 Partly Cloudy 73 23 55 13 53 53 SSE 12 19 29.65 1004 10 16 0.00 0.00
11:53 am 11:53 Mostly Sunny 73 22.8 56 13.3 55 55 S 8 13 29.74 1007 10 16 0.00 0.00
12:53 pm 12:53 Mostly Sunny 69 20.6 54 12.2 59 59 W 14 22 29.77 1008 10 16 0.00 0.00
1:53 pm 13:53 Sunny 67 19.4 52 11.1 59 59 WNW 12 19 29.76 1008 10 16 0.00 0.00
2:53 pm 14:53 Sunny 69 20.6 52 11.1 55 55 WNW 12 19 29.77 1008 10 16 0.00 0.00
3:53 pm 15:53 Sunny 73 22.8 54 12.2 51 51 W 13 20 29.75 1007 10 16 0.00 0.00
4:53 pm 16:53 Mostly Sunny 72 22.2 53 11.7 52 52 N 12 19 29.77 1008 10 16 0.00 0.00
5:13 pm 17:13 Sunny 69 20.6 51 10.6 53 53 N 15 24 29.67 1005 10 16 0.00 0.00
5:31 pm 17:31 Sunny with Nearby Thunderstorms 69 20.6 50 10 51 51 N 16 26 29.67 1005 10 16 0.00 0.00
5:53 pm 17:53 Partly Cloudy with Nearby Thunderstorms 66 18.9 50 10 56 56 N 17 28 29.78 1009 10 16 0.00 0.00
6:01 pm 18:01 Partly Cloudy with Thunderstorms 65 18.3 49 9.4 56 56 N 18 30 29.73 1007 10 16 0.00 0.00
6:29 pm 18:29 Windy with Storms Likely 57 13.9 53 11.7 87 87 NNW 20 31 29.78 1008 N/A 0.04 1.02
6:48 pm 18:48 Partly Cloudy with Thunderstorms 55 13 N/A N/A NNW 8 13 29.83 1010 2 3 0.18 4.57
6:53 pm 18:53 Mostly Cloudy with Thunderstorms 55 13 N/A N/A N 15 24 29.83 1010 6 10 0.18 4.57
7:26 pm 19:26 Partly Cloudy with Nearby Thunderstorms 54 12 N/A N/A NNW 8 13 29.86 1011 10 16 0.00 0.00
7:31 pm 19:31 Partly Cloudy 54 12 N/A N/A WNW 10 17 29.87 1011 10 16 0.09 2.29
7:48 pm 19:48 Mostly Cloudy 54 12 N/A N/A NNW 10 17 29.89 1012 10 16 0.00 0.00
7:53 pm 19:53 Mostly Cloudy 54 12 N/A N/A NNW 12 19 29.88 1012 10 16 0.09 2.29
8:30 pm 20:30 Cloudy 52 11 N/A N/A N 13 20 29.91 1013 10 16 0.00 0.00
8:53 pm 20:53 Cloudy 50 10 N/A N/A N 7 11 29.92 1013 10 16 0.00 0.00
9:53 pm 21:53 Cloudy 50 10 48 8.9 93 93 N 9 15 29.96 1014 10 16 0.00 0.00
10:53 pm 22:53 Cloudy 49 9.4 47 8.3 93 93 NNW 9 15 29.96 1014 10 16 0.00 0.00
11:53 pm 23:53 Cloudy 50 10 47 8.3 89 89 NNW 3 6 29.97 1015 10 16 0.00 0.00

Powered by AerisWeather